GFSSW_850_spd_234.txt.gz
Wind_Speed
14 14 14 14 13 13 12 12 11 11 10 9 10 10 10 11 11 12 11 1 4 9 8 13 5 6 5 2 3 8 4 3 3 2 5 5 3 3 7 15 3 3 23 27 27
14 14 14 14 14 14 14 13 13 12 11 10 10 10 11 12 12 13 10 7 5 4 11 15 4 10 3 2 3 2 3 5 3 5 3 16 7 0 6 5 10 23 28 28 26
15 15 15 15 15 15 15 14 13 13 12 10 10 10 9 10 9 3 6 8 8 6 7 12 7 8 3 5 7 6 4 4 5 7 8 9 17 6 14 5 5 27 32 30 27
17 17 17 17 17 17 16 15 13 13 12 11 10 9 9 6 4 6 4 4 12 13 11 14 11 5 4 4 9 4 6 9 12 11 8 8 7 7 8 3 10 28 31 31 28
18 18 18 18 18 19 18 16 14 12 12 11 9 8 7 7 10 9 4 6 11 15 12 11 13 5 3 3 6 2 4 7 10 11 9 14 11 10 2 6 12 26 29 29 28
19 18 18 18 19 20 20 17 14 12 11 10 9 8 7 6 13 15 13 9 6 14 15 13 7 6 8 1 1 4 12 12 10 10 9 7 4 1 5 11 20 28 29 29 27
19 19 18 18 19 21 21 18 14 12 10 9 9 9 11 20 10 15 16 12 11 12 11 9 8 9 2 3 11 12 6 5 3 5 4 16 2 5 13 16 22 30 30 32 29
20 20 19 19 19 21 20 16 14 11 8 7 8 8 10 10 25 19 16 15 16 15 10 6 3 4 4 10 3 3 4 3 3 4 6 5 4 10 16 21 21 24 30 33 32
21 21 20 19 19 20 15 15 9 6 2 4 6 5 9 8 15 20 20 20 19 14 10 9 1 4 5 5 3 5 2 2 2 7 6 4 4 6 21 16 15 26 29 33 33
22 21 20 18 17 15 14 7 6 4 3 2 6 5 9 1 2 7 17 20 14 6 8 8 5 3 3 3 4 4 3 1 4 4 4 7 6 5 19 18 18 25 25 29 34
23 21 19 17 15 10 11 3 5 2 11 9 10 14 21 14 12 6 9 16 18 6 6 6 4 6 9 6 3 4 4 3 2 4 4 7 3 10 19 16 16 20 27 28 34
22 20 18 16 12 6 9 8 9 9 12 20 25 25 26 23 9 6 10 12 11 6 5 5 5 9 7 5 4 3 1 1 1 4 3 3 6 4 14 20 24 25 25 29 33
22 20 16 13 7 3 3 9 13 12 4 10 7 10 11 14 13 15 9 10 5 7 7 7 6 6 7 5 5 2 3 2 2 4 2 5 5 5 7 15 22 27 31 28 32
20 19 17 10 2 5 1 7 10 12 5 7 4 2 3 8 6 22 12 12 2 11 9 5 5 6 6 5 6 3 7 3 7 3 2 1 4 5 8 15 12 24 33 31 31
20 20 15 10 6 2 3 8 8 4 4 10 2 6 3 6 6 11 22 8 8 6 7 8 8 7 4 6 7 6 7 5 4 3 2 2 2 6 9 11 19 25 34 39 35
17 16 13 8 4 1 4 8 1 5 4 7 5 5 3 8 4 1 6 6 5 5 3 7 2 6 10 5 6 3 4 7 5 3 2 6 5 5 6 14 13 20 27 36 37
15 12 11 8 3 3 6 3 5 4 6 9 5 7 2 3 2 3 5 5 6 5 2 2 1 1 3 6 3 5 6 2 2 1 5 3 2 10 4 6 10 21 30 36 38
11 10 13 12 9 7 5 5 3 2 5 5 5 7 6 8 3 6 3 3 4 6 3 6 4 7 3 6 7 7 9 5 6 4 4 3 6 6 9 14 22 26 37 38 42
6 6 10 9 9 11 4 5 2 4 5 7 9 6 7 6 3 3 2 4 6 7 7 5 6 4 4 5 9 4 4 7 6 2 1 4 7 9 8 6 9 21 29 38 44
4 5 6 6 10 14 5 2 1 3 7 2 4 6 7 8 8 7 5 2 4 8 1 8 1 5 5 5 2 9 8 4 2 7 5 4 4 6 9 8 3 8 23 31 39
2 3 8 6 9 6 3 2 3 13 13 7 5 5 4 4 3 5 5 4 8 7 4 5 3 4 2 6 10 2 3 4 5 4 6 1 6 7 8 5 5 8 19 29 34
3 3 8 4 5 3 2 2 8 8 19 7 4 5 3 4 4 6 4 4 18 6 1 1 5 5 7 2 3 7 9 7 5 4 1 4 7 4 8 5 9 13 20 24 29
3 2 11 4 3 3 2 4 4 8 6 7 6 5 4 5 4 4 5 5 22 8 4 3 0 2 7 6 3 3 5 6 5 3 7 6 6 4 7 5 8 6 8 20 24
3 2 5 8 5 3 3 3 6 7 4 4 4 4 4 5 2 6 6 4 20 10 13 1 2 6 7 7 5 3 5 5 7 5 5 6 8 4 3 4 7 9 10 17 25
5 2 2 2 6 4 3 2 4 6 4 11 4 3 3 4 5 3 4 7 6 12 12 4 1 4 6 6 3 3 2 7 6 5 9 7 9 9 5 2 2 17 14 16 17
4 3 3 4 2 3 4 1 1 4 1 3 1 3 3 3 4 4 4 2 4 7 8 7 1 2 2 1 5 5 5 7 6 2 4 3 6 1 11 13 10 9 12 17 16
6 5 2 7 4 3 2 2 1 1 2 3 3 1 4 5 9 20 21 19 16 4 4 5 4 4 3 4 5 3 3 6 7 6 3 3 4 3 10 13 12 12 13 10 13

GFSSW_850_spd_237.txt.gz
Wind_Speed
13 12 12 13 12 11 11 10 9 9 9 10 10 9 9 9 9 11 6 3 5 9 10 9 8 8 3 1 1 1 1 3 2 4 7 8 5 5 8 13 3 2 14 17 23
13 14 14 13 14 13 13 12 11 10 9 9 11 11 10 10 8 10 6 6 5 6 12 9 7 8 1 1 2 1 2 2 2 8 9 6 4 10 8 5 7 16 18 24 23
14 14 13 13 14 14 15 15 13 11 10 10 10 11 9 8 6 4 6 7 8 10 10 9 5 6 3 2 2 2 2 5 4 12 15 11 6 3 13 4 7 25 26 24 22
15 14 14 14 14 14 15 15 14 12 11 10 10 10 9 5 4 4 4 11 15 16 15 11 5 4 1 2 5 2 5 1 8 9 8 6 11 9 6 4 11 24 26 23 21
16 16 15 15 15 15 16 15 14 12 11 9 9 8 7 6 6 8 5 15 19 19 16 13 8 3 2 2 4 5 2 3 8 9 10 8 7 6 6 10 21 24 23 22 19
18 17 17 16 16 16 17 16 14 12 11 9 8 7 6 6 8 11 8 10 16 17 17 14 4 2 7 4 1 5 8 9 8 8 8 7 4 2 4 12 21 26 23 21 18
18 18 17 16 15 17 17 15 13 10 9 9 7 7 8 12 9 14 14 12 13 18 15 13 10 5 2 1 7 11 8 6 6 5 4 7 4 5 12 16 20 24 22 21 19
18 18 17 16 14 16 15 15 11 7 6 6 6 6 8 8 20 11 14 14 16 17 17 7 9 4 4 10 4 3 3 3 5 6 3 3 1 8 16 18 18 21 21 21 20
18 18 17 16 13 14 14 11 9 6 1 3 5 4 6 6 9 17 19 15 15 15 14 10 5 4 6 5 3 2 3 4 3 9 4 9 1 5 16 17 16 19 21 21 21
17 16 15 14 12 10 13 8 7 3 2 4 6 4 6 2 1 6 10 18 8 16 10 7 4 5 4 8 6 5 4 3 3 7 9 8 9 3 15 18 18 20 21 22 22
17 15 13 12 10 7 11 6 7 3 12 7 7 10 18 11 9 6 6 16 15 12 11 10 8 12 17 14 6 6 6 2 1 3 8 11 10 11 15 19 21 22 22 25 24
21 17 13 10 6 4 7 7 9 7 10 15 18 23 24 19 6 6 9 13 15 13 10 7 15 16 13 10 9 7 5 3 2 4 6 4 11 10 17 22 23 23 25 24 25
21 18 14 10 3 2 3 8 10 10 4 8 6 6 5 9 10 12 13 9 14 17 19 16 14 11 12 11 10 8 9 5 1 5 5 4 6 9 11 18 20 23 24 25 26
19 17 14 9 3 4 2 7 10 8 3 4 3 2 3 3 6 17 14 11 6 20 14 12 10 16 14 16 12 14 9 5 6 4 3 3 3 6 13 16 21 27 27 29 28
17 15 14 10 4 2 1 7 7 2 4 13 3 3 11 6 7 2 19 10 14 9 11 12 14 14 18 20 14 11 9 7 5 3 3 4 4 1 9 16 21 30 31 32 33
14 14 14 10 7 3 4 6 2 1 3 6 7 7 9 3 3 3 9 7 6 7 5 9 3 13 14 9 15 9 7 6 4 2 9 4 7 5 7 15 20 27 32 32 32
10 13 13 11 7 8 7 2 1 1 6 8 8 11 6 4 1 1 7 11 10 14 14 9 8 3 4 15 4 10 12 8 7 6 10 2 5 12 7 9 15 27 37 36 34
5 10 11 12 11 13 6 1 5 6 4 7 7 11 5 9 2 3 4 10 2 6 8 14 13 12 7 10 13 16 16 9 12 10 11 2 7 3 3 9 10 19 31 34 36
4 6 9 10 12 13 3 5 4 5 8 8 11 5 6 6 6 0 3 4 2 4 10 10 17 2 8 6 12 9 11 11 6 1 6 4 5 11 8 4 9 14 18 29 35
3 4 11 11 14 9 4 4 1 6 8 2 5 6 6 10 10 6 2 8 8 3 5 6 7 7 8 7 5 10 12 10 7 15 15 9 6 8 7 4 3 8 21 27 34
2 2 8 9 9 7 3 2 1 7 10 7 4 4 5 6 5 6 6 3 10 6 3 6 4 3 6 15 18 8 9 7 10 8 14 11 9 5 9 7 10 9 15 23 29
3 2 9 4 4 3 2 3 7 8 12 6 2 5 4 6 5 5 5 4 17 6 1 1 7 9 11 2 6 18 19 18 11 12 8 11 16 3 5 6 6 5 6 15 22
3 2 9 3 2 2 2 2 5 8 6 7 6 5 5 4 5 4 5 3 15 8 6 2 4 9 8 5 4 12 13 17 8 9 19 15 11 3 2 4 5 1 1 10 17
2 0 6 10 6 2 2 3 3 4 3 4 5 1 6 3 1 6 8 3 15 10 9 5 2 9 13 15 9 6 16 15 18 12 13 14 18 10 6 5 6 4 5 4 12
5 3 3 3 6 6 2 2 4 6 4 9 2 7 5 4 6 3 4 9 6 11 9 4 3 4 6 5 7 9 12 15 19 21 19 18 19 15 10 1 5 4 6 8 8
4 2 3 2 2 2 3 1 3 5 3 4 6 7 5 4 7 11 8 4 4 8 8 8 1 2 4 4 11 7 5 11 13 7 12 8 17 3 5 9 8 6 7 7 6
7 5 2 3 2 1 1 1 2 2 2 4 5 5 7 6 14 18 18 21 21 12 6 6 5 4 4 7 10 7 4 5 7 5 5 11 2 2 8 9 8 9 10 10 7

GFSSW_850_spd_240.txt.gz
Wind_Speed
11 10 10 10 10 9 9 8 9 10 11 11 11 10 10 9 10 6 3 3 5 8 9 7 9 7 0 2 2 1 3 5 5 7 8 12 9 8 9 15 5 5 14 23 24
12 11 11 11 10 10 11 10 9 9 10 11 12 11 10 10 9 9 6 6 5 7 12 8 10 9 0 1 1 1 0 5 2 5 11 10 8 15 10 11 8 13 20 25 24
12 12 12 11 11 11 11 12 11 10 9 10 11 11 10 8 7 5 7 9 9 9 10 4 6 5 3 2 3 1 3 5 6 6 14 10 8 8 9 3 10 20 27 25 23
13 12 12 11 11 11 12 13 13 11 9 9 9 9 9 5 5 3 8 12 13 13 12 8 5 6 2 4 4 6 4 2 4 6 6 5 7 7 1 6 12 22 25 24 21
13 13 12 11 11 11 12 13 12 11 9 8 7 7 5 7 7 6 6 16 18 15 14 11 8 6 4 3 3 7 7 6 10 7 7 8 7 7 7 10 19 22 23 22 19
14 14 13 13 11 12 13 12 12 10 8 7 6 5 3 11 10 10 6 17 17 15 13 10 3 3 6 4 5 4 6 10 9 10 9 7 8 6 8 16 18 22 21 20 17
14 13 13 13 12 12 13 12 11 9 7 7 5 4 6 7 9 11 12 13 13 13 10 10 8 7 7 4 3 10 9 8 7 9 6 6 7 6 14 18 18 21 21 19 17
14 13 12 12 11 12 13 12 9 8 5 5 3 2 5 11 16 11 13 14 14 11 11 7 8 9 8 5 8 6 8 10 11 10 6 7 7 10 16 20 20 21 21 19 18
15 12 11 10 10 10 11 10 9 7 5 3 2 2 3 4 6 14 13 11 13 10 12 8 7 12 7 13 9 9 6 5 6 10 5 9 3 11 16 20 21 23 22 20 18
14 11 9 8 8 8 11 9 8 5 4 5 3 5 5 3 2 7 14 15 11 12 11 11 11 11 12 12 12 11 9 6 3 8 8 8 7 10 16 19 21 23 22 21 20
15 12 9 7 6 6 10 7 5 1 7 8 9 12 7 5 7 8 12 17 15 19 16 20 13 16 19 18 10 6 9 7 5 2 7 8 7 9 15 19 21 21 24 23 22
15 13 11 7 3 3 8 5 5 5 8 8 8 11 15 11 6 11 12 19 20 19 23 15 20 20 17 16 15 10 10 9 5 5 6 3 8 10 15 19 23 24 25 25 24
15 13 11 7 3 3 5 4 8 8 7 1 3 3 3 5 10 13 17 25 23 24 26 23 23 22 18 18 15 17 14 9 7 5 10 7 14 10 12 17 20 22 24 24 26
15 12 11 7 4 3 1 7 8 6 5 4 2 2 2 5 7 18 17 17 17 26 24 24 24 23 20 20 19 19 16 9 8 8 6 2 1 13 13 16 20 25 25 27 27
12 14 11 7 2 3 3 8 7 2 5 5 2 3 8 8 8 9 19 18 20 20 22 24 23 20 22 22 20 19 9 12 12 12 11 12 7 5 14 14 19 27 30 30 30
11 12 9 8 9 4 4 6 2 6 1 3 3 8 9 5 7 3 13 16 16 21 22 24 22 19 24 22 21 19 5 9 11 13 13 15 7 7 11 14 18 24 31 29 30
8 10 12 11 4 7 2 1 5 4 5 7 9 12 10 4 5 9 13 19 13 18 20 24 22 19 18 22 21 23 17 11 12 12 13 6 7 13 1 5 9 22 31 32 30
4 6 8 9 9 6 1 5 2 5 7 12 10 13 4 8 1 8 9 18 21 16 17 19 25 23 18 26 22 23 23 15 18 13 14 13 7 6 3 2 9 16 26 30 32
4 2 6 9 8 4 6 3 5 6 9 10 14 9 2 5 5 5 12 15 16 16 20 21 24 25 17 20 23 23 24 23 22 17 13 12 14 9 10 5 9 13 19 28 33
6 2 4 8 6 2 1 5 2 6 10 6 8 5 11 11 10 7 9 7 5 3 9 9 14 16 22 16 20 21 18 20 16 23 19 17 16 8 12 9 6 8 16 24 31
4 5 4 5 5 3 3 5 2 6 10 8 8 11 10 10 13 7 5 8 10 5 7 12 12 16 14 21 23 15 15 18 18 19 16 16 16 12 14 2 4 4 9 20 26
2 3 6 3 4 1 3 3 2 6 9 5 7 9 9 11 10 7 4 9 15 9 8 15 10 14 21 20 21 25 24 22 16 23 18 15 14 8 8 1 6 6 3 10 25
1 2 5 3 2 3 4 3 2 6 6 7 6 6 8 10 7 5 6 6 14 8 7 0 12 13 18 11 12 19 23 25 23 18 20 17 17 12 9 6 7 7 5 5 15
2 2 3 5 3 4 1 1 1 2 1 7 7 9 10 10 5 9 10 5 15 8 10 5 14 16 15 18 16 20 23 24 24 18 19 20 22 15 9 1 6 7 5 4 9
5 4 2 1 4 3 3 2 4 4 2 4 4 5 8 6 10 9 8 14 8 4 10 5 11 16 21 14 13 20 20 25 25 25 22 18 22 19 14 3 7 6 6 7 7
3 3 1 3 1 3 2 1 3 4 4 3 6 9 8 10 9 13 14 11 8 6 10 8 7 7 15 18 15 16 20 19 25 25 22 22 16 2 9 6 4 5 6 8 7
4 3 3 3 2 4 2 2 2 5 1 6 8 10 10 9 12 19 20 20 19 16 10 9 6 7 14 14 17 20 19 18 15 16 19 22 20 7 7 9 8 5 8 8 7

GFSSW_850_spd_243.txt.gz
Wind_Speed
8 7 7 7 8 7 7 8 9 11 12 13 14 13 13 12 11 7 6 3 4 5 6 6 6 4 0 2 3 6 3 2 9 3 9 10 11 9 12 15 10 3 21 25 25
9 9 8 8 8 8 9 9 9 10 11 12 14 13 13 13 12 12 11 9 7 6 7 8 8 7 2 2 3 5 2 6 1 2 11 8 10 15 12 12 11 19 24 25 24
10 9 9 9 8 9 9 10 10 10 10 10 12 12 12 11 12 9 14 11 9 7 6 5 5 7 3 7 4 3 1 7 3 8 10 7 11 5 11 9 15 20 27 25 23
10 10 10 10 10 10 10 12 11 11 10 8 9 10 10 7 7 1 10 11 12 11 11 6 7 4 17 6 11 8 3 2 10 12 9 7 3 4 9 8 14 21 25 25 23
11 11 11 10 10 10 11 12 12 11 9 7 6 7 7 10 15 8 6 14 15 15 13 12 14 11 4 11 11 6 10 10 8 7 11 9 5 7 9 12 18 22 23 22 21
11 11 11 11 10 10 11 11 11 10 9 6 5 4 5 16 4 5 3 14 16 15 13 14 9 11 12 6 11 19 12 11 11 9 9 9 6 7 9 16 20 21 21 21 19
12 11 11 11 10 10 10 11 10 9 7 5 4 3 9 11 4 7 8 11 15 14 14 13 11 11 10 8 3 7 10 9 9 11 11 9 10 8 15 17 19 20 20 19 18
12 11 10 10 10 10 10 10 9 8 6 3 1 2 10 7 9 9 13 12 14 14 14 9 10 14 17 1 7 13 11 12 12 12 9 9 6 14 18 19 21 22 20 18 18
13 12 10 8 9 8 9 10 8 8 5 3 3 3 8 5 8 14 16 17 15 14 13 12 10 17 15 14 11 11 6 8 8 9 10 11 9 17 16 20 22 24 22 21 19
13 12 9 8 7 7 9 7 7 4 6 3 5 6 7 3 2 7 16 17 16 16 14 15 13 14 16 15 14 18 16 14 7 12 7 9 6 15 18 21 24 24 24 22 21
12 11 9 7 5 6 10 9 7 2 7 12 8 12 8 5 9 10 14 17 17 18 18 22 16 19 21 21 21 9 14 10 7 6 9 12 8 14 17 20 24 23 25 24 23
12 10 9 7 4 7 11 7 6 6 9 10 7 8 10 12 9 12 16 17 23 21 22 21 23 23 21 20 17 6 15 9 7 11 10 9 11 14 18 18 24 25 27 26 25
12 10 9 5 5 6 4 4 6 7 8 8 2 5 1 4 13 16 19 24 20 24 25 26 24 24 22 22 19 20 19 12 7 7 13 12 13 14 17 19 32 33 28 27 27
10 10 10 6 5 3 1 6 7 6 6 8 5 4 5 6 11 18 19 22 25 26 27 26 28 24 24 22 21 21 18 16 5 9 11 12 7 9 16 18 21 30 28 29 29
11 11 9 8 2 5 5 6 6 4 4 6 3 6 7 10 17 13 21 20 23 25 22 28 28 28 25 26 22 19 16 20 16 13 16 19 7 9 17 17 20 24 34 33 33
9 11 10 8 4 6 7 8 5 8 4 3 5 8 12 12 10 15 8 21 21 22 26 29 30 26 27 23 23 21 21 13 15 15 15 18 13 11 17 17 19 24 28 31 32
5 7 8 5 5 9 7 7 7 5 4 5 10 12 15 16 8 13 16 17 18 17 25 26 32 25 30 23 20 26 20 14 13 13 14 19 14 11 7 5 13 21 28 32 33
1 4 6 6 8 8 6 12 3 6 5 11 12 15 18 7 16 7 15 18 23 27 18 22 22 32 23 23 25 26 24 17 20 14 16 18 9 8 5 3 15 19 28 31 30
3 3 1 5 8 6 14 6 6 5 6 8 13 12 16 1 3 15 15 18 18 23 25 21 27 21 25 24 24 25 25 25 24 18 13 15 18 10 8 9 9 13 26 31 32
4 5 3 5 6 9 12 4 1 4 9 7 12 7 11 13 11 18 14 6 10 18 26 22 21 28 30 23 26 28 21 21 18 23 21 17 12 13 19 12 11 14 17 23 30
4 7 2 5 7 16 5 5 0 3 7 6 11 12 14 14 11 20 18 8 11 14 14 15 19 21 24 25 26 21 23 18 21 20 17 16 13 9 5 14 11 8 13 20 26
10 7 1 3 13 2 2 2 1 4 2 8 7 9 14 12 15 19 18 12 13 13 15 18 18 15 20 19 25 23 24 25 15 24 17 17 12 9 19 14 8 6 5 7 23
8 4 1 4 6 2 6 4 4 7 6 7 8 6 11 14 16 17 15 3 8 14 11 13 16 15 21 21 16 21 26 25 23 19 23 16 16 11 10 10 9 10 3 5 13
7 3 6 2 4 7 1 5 5 6 10 6 11 10 11 13 14 16 17 11 9 17 11 10 16 16 17 18 18 25 24 28 25 19 19 20 19 14 15 16 9 11 7 3 5
3 4 4 3 3 6 4 4 7 3 2 10 9 8 8 13 14 14 18 8 15 4 9 10 16 20 26 26 23 21 25 27 25 25 24 21 20 19 14 13 17 12 10 9 7
8 6 3 1 2 7 6 3 7 5 7 9 5 11 12 13 13 16 15 13 14 14 7 16 12 17 21 21 26 22 19 26 29 28 25 25 21 16 9 22 18 12 13 15 13
6 4 7 7 5 6 3 4 5 5 3 5 9 11 12 11 15 19 23 24 22 17 15 14 14 15 15 17 21 24 22 18 20 26 23 21 21 13 18 18 14 11 12 11 8

GFSSW_850_spd_249.txt.gz
Wind_Speed
10 10 9 9 9 10 11 11 11 12 14 15 15 16 15 15 10 12 9 10 5 9 3 6 2 1 3 9 12 18 4 5 4 6 9 21 17 23 34 34 24 10 32 32 31
11 10 10 10 10 10 11 11 11 12 13 13 14 14 15 15 14 13 10 11 13 8 3 5 1 5 5 9 5 7 3 6 6 16 7 18 19 20 20 29 29 31 32 31 31
12 11 11 11 10 10 10 11 11 12 12 12 12 11 12 13 13 8 9 11 12 6 4 5 1 1 9 8 8 8 7 7 21 30 32 19 17 8 21 20 32 34 32 30 31
12 12 12 11 11 10 10 11 10 11 11 11 10 8 8 7 3 5 4 9 12 4 6 2 5 2 2 2 5 3 18 31 21 27 6 7 11 7 24 30 36 34 32 28 30
13 13 12 12 11 10 10 10 10 10 10 8 8 6 4 4 15 14 8 7 12 9 9 11 10 3 3 5 6 5 5 9 11 13 14 22 17 12 26 35 35 32 31 27 27
14 13 12 11 11 11 10 10 10 9 9 7 5 4 3 4 2 4 8 7 11 12 9 12 18 17 10 14 3 9 7 5 11 12 22 17 14 10 23 35 33 30 30 28 24
15 14 12 10 10 10 10 10 9 9 8 6 4 4 6 14 3 8 7 9 8 11 11 12 20 21 17 7 2 2 4 8 12 7 6 21 7 6 22 31 30 28 27 27 24
15 15 13 11 10 9 9 9 9 7 5 4 3 4 6 2 9 11 9 8 12 10 17 16 20 23 9 14 11 4 8 2 7 13 12 8 4 9 16 29 29 26 27 27 26
14 14 13 11 10 9 9 8 10 7 6 3 4 5 7 7 9 7 15 12 12 13 14 19 18 16 15 7 8 2 6 4 8 18 6 4 6 20 25 27 27 28 26 29 29
14 13 12 10 9 9 12 11 9 5 8 6 1 6 4 2 7 5 2 11 14 16 17 19 11 5 6 5 7 6 6 5 4 7 18 10 8 13 27 27 25 25 27 29 30
13 12 12 9 6 11 17 12 10 4 18 10 20 12 12 13 7 6 8 7 12 15 6 12 4 8 11 14 16 15 10 6 9 9 7 18 11 19 27 26 26 28 25 30 30
11 11 11 7 6 10 11 16 10 8 9 9 6 8 8 4 7 12 5 5 8 7 10 8 11 11 16 16 18 16 8 8 7 13 10 15 18 20 22 26 32 30 27 31 34
11 11 8 5 6 7 6 11 10 11 4 6 0 1 2 6 6 9 8 12 9 6 10 9 9 15 18 17 18 17 8 5 4 6 11 3 8 19 18 25 33 34 30 34 36
9 9 8 7 6 11 6 10 11 7 2 7 5 3 5 6 9 4 6 10 5 10 10 9 15 19 19 15 15 15 18 14 13 9 8 12 7 19 22 21 23 33 31 35 35
7 8 5 7 5 11 12 11 10 7 1 4 4 2 5 6 11 3 7 3 8 9 6 9 12 15 20 20 14 14 19 16 10 11 6 11 2 7 23 22 24 29 30 34 36
6 7 3 4 5 13 12 10 7 1 2 2 8 8 8 16 15 10 3 8 6 6 12 10 23 15 14 19 21 17 18 17 14 5 6 15 8 8 19 23 22 28 34 37 35
7 6 3 3 4 11 11 9 2 3 0 5 6 8 9 9 9 3 6 8 5 4 6 10 17 18 22 18 22 18 13 8 8 5 5 14 10 16 18 22 25 29 41 43 39
7 5 3 4 5 9 9 4 4 8 11 10 8 11 9 6 4 8 9 6 10 7 9 7 11 10 17 15 13 17 10 8 10 7 6 12 7 15 15 29 44 45 46 45 44
8 8 7 1 5 4 10 3 3 7 10 8 11 7 7 12 9 4 5 6 7 10 5 5 11 23 17 18 18 23 15 14 10 13 10 7 8 17 12 13 25 36 38 43 46
9 11 14 4 3 6 3 6 4 7 9 6 7 8 9 10 10 11 7 7 9 14 12 5 8 14 19 13 21 16 16 11 8 11 14 6 4 5 7 15 14 23 41 45 47
8 6 5 10 1 8 4 6 5 11 8 5 9 7 9 8 9 10 8 10 8 11 13 8 4 15 17 6 12 15 14 14 9 7 10 6 7 10 10 2 6 21 43 45 47
8 4 10 6 4 8 5 2 1 3 4 2 0 6 7 10 5 9 12 10 13 11 7 5 5 5 21 20 18 17 13 13 11 9 4 5 16 3 6 9 10 9 46 45 50
7 13 7 5 3 4 4 1 5 1 6 6 6 7 9 8 7 7 10 17 22 6 3 6 4 6 16 8 7 5 15 19 10 6 16 5 6 3 12 10 10 20 17 27 34
6 3 5 6 11 5 5 6 7 9 6 2 2 9 8 7 5 7 11 14 22 9 13 11 3 7 10 19 17 21 24 22 21 6 11 14 15 5 12 19 12 33 34 26 11
3 5 12 4 7 9 8 8 7 7 5 4 2 7 5 5 8 9 13 10 20 7 12 1 7 10 16 19 16 18 22 20 17 16 10 11 6 5 12 9 17 19 33 29 25
7 8 18 18 18 2 5 6 10 3 7 6 6 9 8 6 6 8 9 8 5 12 9 11 8 11 17 18 18 20 25 18 16 17 9 4 4 17 27 26 31 26 22 30 30
12 18 11 12 9 8 2 2 7 8 4 3 9 6 7 9 15 17 20 21 20 15 11 7 7 6 11 13 18 11 11 19 20 19 14 7 8 19 12 19 15 17 21 16 15